STARLINK-4517 (53390 NORAD) Tracking and Keplerian Element Data

This shows tracking and keplerian element data for the satellite.

Feedback or suggestion? Click here.




ElementValue
Catalog53390
NameSTARLINK-4517
Epoch Orbit130
Epoch Day269.91667824
Epoch Year2022
RAAN19.4623
Inclination53.2175
Eccentricity0.0002045
Argument of Perigee33.4248
Mean Anonmoly58.293
Mean Motion15.08861532
Decay Rate-0.00020836
L11 53390U 22097C 22269.91667824 -.00020836 00000+0 -12940-2 0 9992
L22 53390 53.2175 19.4623 0002045 33.4248 58.2930 15.08861532 1305

Live tracking and technical data element details for STARLINK-4517 (NORAD 53390). STARLINK-4517 can be tracked NOW for your location showing map with azimuth and elevation plus other details from your city location.

Track the satellite on the map from your city or location and see movement details for azimuth, elevation, latitude, longitude, range, height, and movement on the map or in text.







IsCatalogInMostPopularTable: catalog: 53390, numindb: 5
Update: records affected: 1



GetName: 53390 STARLINK-4517

Hit Count: updated at: Thu, 29 Sep 2022 11:42:18 GMT